Location: Newark
(7.0858°N, 171.3717°E)
Time: 08:50:19
(UTC+00:00)

S-56A Canister/Altair - Pass Details

Date: 28 November 2020
Orbit: 633 x 2499 km, 38.9° (Epoch: 27 January)

Event Time Altitude Azimuth Distance (km) Brightness Sun altitude
Rises 07:54:33 0° 266° (W) 5,952 13.3 -23.9°
Reaches altitude 10° 08:00:12 10° 280° (W) 4,693 12.3 -25.3°
Maximum altitude 08:08:44 21° 323° (NW) 3,372 10.9 -27.2°
Enters shadow 08:14:46 12° 4° (N) 3,525 10.6 -28.6°
Drops below altitude 10° 08:15:32 10° 8° (N) 3,624 - -28.8°
Sets 08:19:12 0° 25° (NNE) 4,283 - -29.7°
